This demonstration page uses our WeatherBlox Daily Observations layout. Learn more.

Left ArrowRight Arrow

39.92423, -83.80882

Hourly Observations for March 21, 2019

Temp ( °F °C ) Dew Point ( °F °C ) Humidity (%) Winds ( mph kmh ) Pressure ( in mb ) Visibility ( mi km ) Precip ( " mm )
12:34 am 00:34 Cloudy 45 7 39 4 81 81 W 8 13 29.99 1016 10 16.0934 0 0
12:56 am 00:56 Cloudy with Light Rain 44 6.7 40 4.4 85 85 WSW 8 13 29.99 1016 10 16.0934 0 0
1:29 am 01:29 Cloudy with Light Rain 43 6 41 5 93 93 SW 7 11 29.99 1016 10 16.0934 0 0.0254
1:56 am 01:56 Cloudy with Light Rain 43 6.1 41 5 93 93 SSW 5 7 29.97 1015 10 16.0934 0.01 0.254
2:10 am 02:10 Cloudy with Light Rain 43 6 41 5 93 93 SW 6 9 29.99 1016 10 16.0934 0.01 0.254
2:36 am 02:36 Cloudy with Light Rain 43 6 41 5 93 93 WSW 8 13 29.98 1015 10 16.0934 0.03 0.762
2:56 am 02:56 Cloudy with Light Rain 42 5.6 42 5.6 100 100 SW 7 11 29.97 1015 10 16.0934 0.04 1.016
3:56 am 03:56 Cloudy with Light Rain 42 5.6 42 5.6 100 100 SSW 7 11 29.94 1014 10 16.0934 0.01 0.254
4:54 am 04:54 Cloudy with Light Rain 43 6 41 5 93 93 SSW 8 13 29.94 1014 10 16.0934 0 0.0254
4:56 am 04:56 Cloudy with Light Rain 42 5.6 41 5 96 96 SSW 9 15 29.92 1013 10 16.0934 0 0.0254
5:51 am 05:51 Cloudy with Light Rain 43 6 41 5 93 93 SSW 6 9 29.93 1013 10 16.0934 0 0.0254
5:56 am 05:56 Cloudy with Light Rain 42 5.6 42 5.6 100 100 SSW 7 11 29.91 1013 10 16.0934 0 0.0254
6:48 am 06:48 Cloudy with Light Rain 43 6 43 6 100 100 SSW 6 9 29.92 1013 10 16.0934 0 0.0254
6:56 am 06:56 Cloudy with Light Rain 42 5.6 42 5.6 100 100 SSW 6 9 29.91 1013 10 16.0934 0 0.0254
7:56 am 07:56 Cloudy with Light Rain 42 5.6 42 5.6 100 100 SW 8 13 29.9 1013 4 6.43736 0.01 0.254
8:02 am 08:02 Cloudy with Light Rain 43 6 43 6 100 100 SW 7 11 29.92 1013 1.75 2.816345 0 0.0254
8:14 am 08:14 Cloudy with Light Rain 43 6 43 6 100 100 SW 7 11 29.92 1013 1.5 2.41401 0 0.0254
8:27 am 08:27 Cloudy with Light Rain 43 6 43 6 100 100 SW 7 11 29.92 1013 1.5 2.41401 0 0.0254
8:37 am 08:37 Cloudy with Light Rain 43 6 43 6 100 100 SW 7 11 29.92 1013 2.5 4.02335 0 0.0254
8:44 am 08:44 Cloudy with Mist and Fog 43 6 43 6 100 100 SW 8 13 29.92 1013 3 4.82802 0 0.0254
8:56 am 08:56 Cloudy with Light Rain 42 5.6 42 5.6 100 100 SW 7 11 29.9 1013 2.5 4.02335 0.01 0.254
9:07 am 09:07 Cloudy with Light Rain 43 6 43 6 100 100 SW 7 11 29.92 1013 3 4.82802 0 0.0254
9:56 am 09:56 Cloudy with Light Rain 43 6.1 43 6.1 100 100 SW 6 9 29.9 1013 2 3.21868 0 0.0254
10:07 am 10:07 Cloudy with Mist and Fog 45 7 43 6 93 93 WSW 8 13 29.9 1013 5 8.0467 0 0.0254
10:56 am 10:56 Cloudy 44 6.7 43 6.1 96 96 WSW 6 9 29.91 1013 7 11.26538 0 0.0254
11:05 am 11:05 Cloudy with Light Rain 45 7 43 6 93 93 WSW 7 11 29.91 1013 7 11.26538 0 0.0254
11:56 am 11:56 Cloudy with Light Rain 45 7.2 44 6.7 97 97 W 7 11 29.9 1013 8 12.87472 0 0.0254
12:05 pm 12:05 Cloudy with Light Rain 45 7 45 7 100 100 W 6 9 29.9 1013 7 11.26538 0 0.0254
12:52 pm 12:52 Cloudy with Light Rain 45 7 43 6 93 93 NW 7 11 29.9 1013 10 16.0934 0 0.0254
12:56 pm 12:56 Cloudy with Light Rain 44 6.7 42 5.6 93 93 NW 8 13 29.9 1012 10 16.0934 0 0.0254
1:38 pm 13:38 Cloudy 46 8 43 6 87 87 WNW 9 15 29.89 1012 10 16.0934 0.01 0.254
1:56 pm 13:56 Cloudy 46 7.8 43 6.1 89 89 NW 9 15 29.89 1012 10 16.0934 0.01 0.254
2:13 pm 14:13 Cloudy 46 8 43 6 87 87 NNW 12 19 29.89 1012 10 16.0934 0 0
2:30 pm 14:30 Cloudy 46 8 43 6 87 87 NNW 13 20 29.89 1012 10 16.0934 0 0
2:56 pm 14:56 Cloudy 47 8.3 41 5 80 80 NW 14 22 29.88 1012 10 16.0934 0 0
3:36 pm 15:36 Cloudy 46 8 41 5 82 82 NNW 14 22 29.88 1012 10 16.0934 0 0
3:56 pm 15:56 Cloudy 47 8.3 41 5 80 80 NW 15 24 29.88 1012 10 16.0934 0 0
4:56 pm 16:56 Cloudy 46 7.8 41 5 83 83 NNW 16 26 29.89 1012 10 16.0934 0 0
5:41 pm 17:41 Cloudy 45 7 41 5 87 87 NW 14 22 29.9 1013 10 16.0934 0 0
5:56 pm 17:56 Cloudy 44 6.7 42 5.6 93 93 NW 13 20 29.91 1013 8 12.87472 0 0
6:41 pm 18:41 Cloudy 45 7 43 6 93 93 WNW 10 17 29.91 1013 10 16.0934 0 0
6:56 pm 18:56 Cloudy 44 6.7 42 5.6 93 93 WNW 9 15 29.91 1013 9 14.48406 0 0
7:51 pm 19:51 Cloudy 45 7 41 5 87 87 NW 10 17 29.92 1013 10 16.0934 0 0
7:56 pm 19:56 Cloudy 44 6.7 41 5 89 89 NW 9 15 29.93 1013 10 16.0934 0 0
9:21 pm 21:21 Cloudy 43 6 39 4 87 87 WNW 15 24 29.95 1014 10 16.0934 0 0
9:56 pm 21:56 Cloudy 42 5.6 38 3.3 85 85 NW 14 22 29.94 1014 10 16.0934 0 0
10:56 pm 22:56 Cloudy 41 5 36 2.2 82 82 NW 13 20 29.96 1014 10 16.0934 0 0
11:40 pm 23:40 Cloudy 41 5 36 2 81 81 WNW 15 24 29.97 1015 10 16.0934 0 0
11:56 pm 23:56 Cloudy 40 4.4 36 2.2 86 86 NW 16 26 29.97 1015 10 16.0934 0 0

Powered by AerisWeather